Simultaneous Nadir Overpasses (SNOs) Predictions

Prediction of SNOs near equator between AQUA and NPP Satellite Orbit:

Table of predicted SNOs near equator for the next 14.0 days since TLE Epoch: 2/11/2017
Index Date (AQUA) Time (AQUA) AQUA Lat,Lon Date (NPP) Time (NPP) NPP Lat,Lon Distance(km) Time Diff (sec)
1 02/12/2017 00:08:53 -4.73, 20.98 02/11/2017 23:59:18 -4.69, 20.70 31.18 575
2 02/12/2017 00:57:09 0.19,-170.43 02/12/2017 00:48:49 0.08,-170.97 61.30 500
3 02/12/2017 01:45:16 4.35, -1.81 02/12/2017 01:38:11 4.53, -2.61 91.17 425
4 02/14/2017 16:25:03 -3.46, 137.13 02/14/2017 16:15:49 -3.36, 136.78 40.63 554
5 02/14/2017 17:13:18 -1.14, -54.27 02/14/2017 17:05:20 -1.26, -54.90 70.71 478
6 02/17/2017 07:56:32 19.17, 81.90 02/17/2017 07:46:32 19.21, 81.56 35.30 600
7 02/17/2017 08:41:12 -2.14,-106.71 02/17/2017 08:32:20 -2.03,-107.15 50.03 532
8 02/17/2017 09:29:26 -2.52, 61.90 02/17/2017 09:21:50 -2.64, 61.19 80.04 456
9 02/20/2017 00:09:13 5.30,-159.17 02/19/2017 23:59:28 5.25,-159.43 29.21 585
10 02/20/2017 00:57:20 -0.83, 9.44 02/20/2017 00:48:50 -0.70, 8.92 59.51 510
11 02/20/2017 01:45:35 -3.77, 178.04 02/20/2017 01:38:20 -3.97, 177.26 89.40 435
12 02/22/2017 16:25:21 3.99, -43.01 02/22/2017 16:15:58 3.93, -43.35 38.75 563
13 02/22/2017 17:13:28 0.54, 125.61 02/22/2017 17:05:20 0.68, 125.01 68.96 488
14 02/22/2017 18:01:43 -5.14, -65.79 02/22/2017 17:54:51 -5.30, -66.66 98.69 412




NCC Satellite Simultaneous Nadir Overpasses (SNOs) Prediction Service
